When you browse on this site, cookies collect data to enhance your experience and personalize the content and advertising you see.
Visit our Privacy Policy to learn more. By continuing to use the site, you agree to this use of cookies and data.
  • In Slovakia
  • List of Countries
  • For 7 days
  • Water Temperature
  • Satellite Maps
  • Weather Map
  • Weather Widgets
  • user-avatar
    Login

    Hourly Weather Santa Fe

    Today, 21 November, Wednesday

    Time Temperature Precipitation Wind Pressure Humidity
    00:00 +22°C° 0 mm 4 mps 757 mmHg 66%
    01:00 +21°C° 0 mm 4 mps 757 mmHg 67%
    02:00 +21°C° 0 mm 3 mps 757 mmHg 68%
    03:00 +20°C° 0 mm 3 mps 757 mmHg 69%
    04:00 +20°C° 0 mm 3 mps 757 mmHg 70%
    05:00 +19°C° 0 mm 3 mps 757 mmHg 71%
    06:00 +21°C° 0 mm 4 mps 757 mmHg 66%
    07:00 +25°C° 0 mm 4 mps 757 mmHg 61%
    08:00 +27°C° 0 mm 5 mps 758 mmHg 57%
    09:00 +29°C° 0 mm 5 mps 757 mmHg 53%
    10:00 +32°C° 0 mm 5 mps 757 mmHg 49%
    11:00 +34°C° 0 mm 5 mps 756 mmHg 45%
    12:00 +35°C° 0 mm 5 mps 756 mmHg 43%
    13:00 +36°C° 0 mm 5 mps 755 mmHg 42%
    14:00 +37°C° 0 mm 4 mps 754 mmHg 40%
    15:00 +37°C° 0 mm 4 mps 754 mmHg 42%
    16:00 +36°C° 0 mm 4 mps 753 mmHg 45%
    17:00 +36°C° 0 mm 3 mps 752 mmHg 47%
    18:00 +34°C° 0 mm 3 mps 753 mmHg 52%
    19:00 +30°C° 0 mm 3 mps 753 mmHg 56%
    20:00 +28°C° 0 mm 3 mps 753 mmHg 61%
    21:00 +28°C° 0 mm 3 mps 753 mmHg 62%
    22:00 +27°C° 0 mm 3 mps 753 mmHg 63%
    23:00 +27°C° 0 mm 4 mps 754 mmHg 64%

    Tomorrow, 22 November, Thursday

    Time Temperature Precipitation Wind Pressure Humidity
    00:00 +26°C° 0 mm 4 mps 754 mmHg 64%
    01:00 +26°C° 0 mm 4 mps 753 mmHg 64%
    02:00 +26°C° 0 mm 4 mps 753 mmHg 65%
    03:00 +25°C° 0 mm 4 mps 753 mmHg 67%
    04:00 +25°C° 0 mm 4 mps 753 mmHg 68%
    05:00 +25°C° 0 mm 4 mps 752 mmHg 70%
    06:00 +26°C° 0.3 mm 4 mps 753 mmHg 69%
    07:00 +28°C° 0.3 mm 4 mps 754 mmHg 68%
    08:00 +29°C° 0.3 mm 4 mps 754 mmHg 67%
    09:00 +29°C° 0.2 mm 3 mps 755 mmHg 66%
    10:00 +30°C° 0.2 mm 2 mps 755 mmHg 66%
    11:00 +30°C° 0.2 mm 2 mps 756 mmHg 65%
    12:00 +30°C° 0.8 mm 2 mps 755 mmHg 68%
    13:00 +29°C° 0.8 mm 3 mps 755 mmHg 70%
    14:00 +29°C° 0.8 mm 3 mps 754 mmHg 73%
    15:00 +29°C° 0.4 mm 3 mps 754 mmHg 74%
    16:00 +28°C° 0.4 mm 3 mps 754 mmHg 74%
    17:00 +28°C° 0.4 mm 2 mps 754 mmHg 75%
    18:00 +27°C° 0.4 mm 3 mps 755 mmHg 78%
    19:00 +26°C° 0.4 mm 3 mps 756 mmHg 82%
    20:00 +25°C° 0.4 mm 4 mps 756 mmHg 86%
    21:00 +25°C° 1.6 mm 4 mps 756 mmHg 89%
    22:00 +23°C° 1.6 mm 5 mps 757 mmHg 91%
    23:00 +22°C° 1.6 mm 5 mps 757 mmHg 94%

    Day after tomorrow, 23 November, Friday

    Time Temperature Precipitation Wind Pressure Humidity
    00:00 +22°C° 1.5 mm 5 mps 757 mmHg 94%
    01:00 +21°C° 1.5 mm 5 mps 757 mmHg 94%
    02:00 +21°C° 1.5 mm 5 mps 757 mmHg 94%
    03:00 +20°C° 0.3 mm 5 mps 757 mmHg 94%
    04:00 +20°C° 0.3 mm 5 mps 758 mmHg 93%
    05:00 +19°C° 0.3 mm 5 mps 758 mmHg 93%
    06:00 +19°C° 0.1 mm 5 mps 758 mmHg 92%
    07:00 +19°C° 0.1 mm 5 mps 759 mmHg 91%
    08:00 +19°C° 0.1 mm 5 mps 759 mmHg 89%
    09:00 +20°C° 0 mm 5 mps 759 mmHg 86%
    10:00 +21°C° 0 mm 4 mps 759 mmHg 82%
    11:00 +22°C° 0 mm 4 mps 759 mmHg 79%
    12:00 +23°C° 0 mm 4 mps 759 mmHg 75%
    13:00 +25°C° 0 mm 4 mps 758 mmHg 72%
    14:00 +25°C° 0 mm 4 mps 757 mmHg 69%
    15:00 +25°C° 0 mm 4 mps 757 mmHg 69%
    16:00 +25°C° 0 mm 4 mps 756 mmHg 70%
    17:00 +25°C° 0 mm 5 mps 756 mmHg 70%
    18:00 +23°C° 0 mm 4 mps 756 mmHg 73%
    19:00 +23°C° 0 mm 4 mps 757 mmHg 77%
    20:00 +22°C° 0 mm 4 mps 757 mmHg 80%
    21:00 +21°C° 0 mm 4 mps 758 mmHg 81%
    22:00 +21°C° 0 mm 4 mps 758 mmHg 82%
    23:00 +20°C° 0 mm 4 mps 758 mmHg 83%

    24 November, Saturday

    Time Temperature Precipitation Wind Pressure Humidity
    00:00 +20°C° 0 mm 3 mps 758 mmHg 85%
    01:00 +20°C° 0 mm 3 mps 758 mmHg 87%
    02:00 +19°C° 0 mm 3 mps 757 mmHg 89%
    03:00 +19°C° 0 mm 3 mps 758 mmHg 88%
    04:00 +19°C° 0 mm 3 mps 758 mmHg 88%
    05:00 +19°C° 0 mm 3 mps 758 mmHg 88%
    06:00 +20°C° 0 mm 3 mps 758 mmHg 87%
    07:00 +20°C° 0 mm 3 mps 759 mmHg 86%
    08:00 +20°C° 0 mm 4 mps 759 mmHg 85%
    09:00 +21°C° 0 mm 4 mps 759 mmHg 83%
    10:00 +22°C° 0 mm 4 mps 759 mmHg 80%
    11:00 +22°C° 0 mm 4 mps 759 mmHg 78%
    12:00 +25°C° 0 mm 4 mps 758 mmHg 74%
    13:00 +26°C° 0 mm 4 mps 757 mmHg 70%
    14:00 +28°C° 0 mm 4 mps 757 mmHg 66%
    15:00 +28°C° 0 mm 4 mps 756 mmHg 67%
    16:00 +27°C° 0 mm 4 mps 756 mmHg 69%
    17:00 +27°C° 0 mm 4 mps 756 mmHg 71%
    18:00 +26°C° 0 mm 4 mps 756 mmHg 74%
    19:00 +25°C° 0 mm 4 mps 757 mmHg 78%
    20:00 +22°C° 0 mm 4 mps 757 mmHg 82%
    21:00 +22°C° 0 mm 4 mps 758 mmHg 84%
    22:00 +21°C° 0 mm 3 mps 758 mmHg 86%
    23:00 +20°C° 0 mm 3 mps 758 mmHg 88%

    25 November, Sunday

    Time Temperature Precipitation Wind Pressure Humidity
    00:00 +20°C° 0 mm 3 mps 758 mmHg 90%
    01:00 +19°C° 0 mm 3 mps 758 mmHg 92%
    02:00 +19°C° 0 mm 3 mps 758 mmHg 93%
    03:00 +18°C° 0 mm 3 mps 758 mmHg 94%
    04:00 +18°C° 0 mm 3 mps 758 mmHg 95%
    05:00 +18°C° 0 mm 3 mps 758 mmHg 95%
    06:00 +19°C° 0 mm 3 mps 759 mmHg 90%
    07:00 +21°C° 0 mm 3 mps 759 mmHg 84%
    08:00 +22°C° 0 mm 4 mps 760 mmHg 78%
    09:00 +25°C° 0 mm 4 mps 759 mmHg 72%
    10:00 +27°C° 0 mm 3 mps 759 mmHg 67%
    11:00 +28°C° 0 mm 3 mps 759 mmHg 61%
    12:00 +28°C° 0 mm 4 mps 759 mmHg 61%
    13:00 +29°C° 0 mm 4 mps 758 mmHg 60%
    14:00 +29°C° 0 mm 4 mps 758 mmHg 60%
    15:00 +29°C° 0 mm 4 mps 757 mmHg 61%
    16:00 +28°C° 0 mm 5 mps 757 mmHg 61%
    17:00 +28°C° 0 mm 5 mps 757 mmHg 62%
    18:00 +27°C° 0 mm 4 mps 757 mmHg 67%
    19:00 +25°C° 0 mm 4 mps 758 mmHg 71%
    20:00 +22°C° 0 mm 3 mps 758 mmHg 75%
    21:00 +22°C° 0 mm 3 mps 758 mmHg 78%
    22:00 +21°C° 0 mm 3 mps 759 mmHg 81%
    23:00 +20°C° 0 mm 3 mps 759 mmHg 84%

    26 November, Monday

    Time Temperature Precipitation Wind Pressure Humidity
    00:00 +19°C° 0 mm 3 mps 759 mmHg 87%
    01:00 +19°C° 0 mm 3 mps 758 mmHg 89%
    02:00 +18°C° 0 mm 2 mps 758 mmHg 92%
    03:00 +18°C° 0 mm 3 mps 759 mmHg 93%
    04:00 +17°C° 0 mm 3 mps 759 mmHg 93%
    05:00 +17°C° 0 mm 3 mps 759 mmHg 94%
    06:00 +18°C° 0 mm 4 mps 760 mmHg 86%
    07:00 +20°C° 0 mm 4 mps 760 mmHg 78%
    08:00 +21°C° 0 mm 4 mps 760 mmHg 70%
    09:00 +22°C° 0 mm 4 mps 760 mmHg 65%
    10:00 +25°C° 0 mm 4 mps 760 mmHg 60%
    11:00 +26°C° 0 mm 4 mps 760 mmHg 54%
    12:00 +27°C° 0 mm 4 mps 759 mmHg 50%
    13:00 +28°C° 0 mm 5 mps 759 mmHg 47%
    14:00 +29°C° 0 mm 5 mps 758 mmHg 43%
    15:00 +28°C° 0 mm 5 mps 758 mmHg 46%
    16:00 +28°C° 0 mm 5 mps 758 mmHg 48%
    17:00 +27°C° 0 mm 5 mps 758 mmHg 51%
    18:00 +25°C° 0 mm 5 mps 758 mmHg 55%
    19:00 +23°C° 0 mm 4 mps 758 mmHg 60%
    20:00 +22°C° 0 mm 3 mps 759 mmHg 64%
    21:00 +21°C° 0 mm 4 mps 759 mmHg 66%
    22:00 +20°C° 0 mm 4 mps 759 mmHg 68%
    23:00 +20°C° 0 mm 4 mps 759 mmHg 71%
    Show more